TimeEDT,TemperatureF,Dew PointF,Humidity,Sea Level PressureIn,VisibilityMPH,Wind Direction,Wind SpeedMPH,Gust SpeedMPH,PrecipitationIn,Events,Conditions,WindDirDegrees,DateUTC
12:47 AM,66.2,64.4,94,30.18,4.0,Calm,Calm,-,N/A,,Partly Cloudy,0,2012-10-05 04:47:00
12:54 AM,66.0,64.9,96,30.17,6.0,Calm,Calm,-,N/A,,Partly Cloudy,0,2012-10-05 04:54:00
1:24 AM,64.4,64.4,100,30.17,1.8,Calm,Calm,-,N/A,,Clear,0,2012-10-05 05:24:00
1:31 AM,64.4,64.4,100,30.17,3.0,Calm,Calm,-,N/A,,Clear,0,2012-10-05 05:31:00
1:43 AM,64.4,62.6,94,30.17,1.5,Calm,Calm,-,N/A,,Clear,0,2012-10-05 05:43:00
1:46 AM,64.4,62.6,94,30.17,0.8,Calm,Calm,-,N/A,,Clear,0,2012-10-05 05:46:00
1:54 AM,64.9,64.0,97,30.17,0.5,Calm,Calm,-,N/A,Fog,Fog,0,2012-10-05 05:54:00
2:03 AM,64.4,62.6,94,30.17,1.2,Calm,Calm,-,N/A,,Clear,0,2012-10-05 06:03:00
2:05 AM,62.6,62.6,100,30.17,2.5,Calm,Calm,-,0.01,,Clear,0,2012-10-05 06:05:00
2:07 AM,62.6,62.6,100,30.17,1.2,Calm,Calm,-,0.01,,Partly Cloudy,0,2012-10-05 06:07:00
2:14 AM,62.6,62.6,100,30.17,1.0,Calm,Calm,-,0.01,,Mist,0,2012-10-05 06:14:00
2:17 AM,62.6,62.6,100,30.17,2.0,Calm,Calm,-,0.01,,Scattered Clouds,0,2012-10-05 06:17:00
2:35 AM,64.4,64.4,100,30.16,1.5,Calm,Calm,-,0.01,,Partly Cloudy,0,2012-10-05 06:35:00
2:40 AM,64.4,64.4,100,30.16,0.8,Calm,Calm,-,0.01,,Clear,0,2012-10-05 06:40:00
2:47 AM,64.4,64.4,100,30.16,1.2,Calm,Calm,-,0.01,,Clear,0,2012-10-05 06:47:00
2:50 AM,64.4,64.4,100,30.16,2.0,Calm,Calm,-,0.01,,Clear,0,2012-10-05 06:50:00
2:54 AM,64.9,64.0,97,30.16,4.0,Calm,Calm,-,0.01,,Clear,0,2012-10-05 06:54:00
3:54 AM,64.9,64.0,97,30.15,6.0,Calm,Calm,-,N/A,,Clear,0,2012-10-05 07:54:00
4:54 AM,64.9,64.0,97,30.15,6.0,Calm,Calm,-,N/A,,Clear,0,2012-10-05 08:54:00
5:54 AM,64.0,63.0,96,30.15,7.0,Calm,Calm,-,N/A,,Clear,0,2012-10-05 09:54:00
6:29 AM,62.6,62.6,100,30.16,2.0,Calm,Calm,-,N/A,,Clear,0,2012-10-05 10:29:00
6:33 AM,62.6,62.6,100,30.16,1.5,Calm,Calm,-,N/A,,Clear,0,2012-10-05 10:33:00
6:36 AM,62.6,62.6,100,30.16,0.8,Calm,Calm,-,N/A,,Clear,0,2012-10-05 10:36:00
6:44 AM,62.6,62.6,100,30.16,1.2,Calm,Calm,-,N/A,,Clear,0,2012-10-05 10:44:00
6:47 AM,62.6,62.6,100,30.16,3.0,Calm,Calm,-,N/A,,Clear,0,2012-10-05 10:47:00
6:54 AM,62.1,62.1,100,30.16,4.0,Calm,Calm,-,N/A,,Clear,0,2012-10-05 10:54:00
7:54 AM,63.0,63.0,100,30.16,4.0,Calm,Calm,-,N/A,,Clear,0,2012-10-05 11:54:00
8:54 AM,66.9,64.9,93,30.16,6.0,North,4.6,-,N/A,,Mist,360,2012-10-05 12:54:00
9:54 AM,70.0,64.9,84,30.17,10.0,North,4.6,-,N/A,,Clear,10,2012-10-05 13:54:00
10:54 AM,73.0,61.0,66,30.16,10.0,NNE,6.9,-,N/A,,Clear,30,2012-10-05 14:54:00
11:54 AM,75.9,59.0,56,30.14,10.0,NNE,5.8,-,N/A,,Clear,20,2012-10-05 15:54:00
12:54 PM,78.1,57.9,50,30.13,10.0,ENE,4.6,-,N/A,,Clear,60,2012-10-05 16:54:00
1:54 PM,81.0,57.0,44,30.11,10.0,Calm,Calm,-,N/A,,Clear,0,2012-10-05 17:54:00
2:54 PM,79.0,55.9,45,30.09,10.0,Calm,Calm,-,N/A,,Clear,0,2012-10-05 18:54:00
3:54 PM,81.0,55.0,41,30.07,10.0,NNW,3.5,-,N/A,,Clear,330,2012-10-05 19:54:00
4:54 PM,80.1,55.0,42,30.05,10.0,Calm,Calm,-,N/A,,Clear,0,2012-10-05 20:54:00
5:54 PM,75.0,66.0,73,30.04,10.0,Calm,Calm,-,N/A,,Clear,0,2012-10-05 21:54:00
6:54 PM,70.0,64.0,81,30.04,10.0,Calm,Calm,-,N/A,,Clear,0,2012-10-05 22:54:00
7:54 PM,66.9,64.0,90,30.04,10.0,Calm,Calm,-,N/A,,Clear,0,2012-10-05 23:54:00
8:54 PM,64.9,63.0,93,30.04,9.0,Calm,Calm,-,N/A,,Clear,0,2012-10-06 00:54:00
9:54 PM,63.0,62.1,97,30.04,9.0,Calm,Calm,-,N/A,,Clear,0,2012-10-06 01:54:00
10:54 PM,63.0,62.1,97,30.04,6.0,Calm,Calm,-,N/A,,Clear,0,2012-10-06 02:54:00
11:54 PM,61.0,60.1,97,30.03,3.0,Calm,Calm,-,N/A,,Clear,0,2012-10-06 03:54:00